Theta_e
318 319 320 319 318 318 317 317 316 315 313 313 312 311 310 309 309 308 307 308 307 306 304 302 301 300 300 300 300 300 300 300 295 295 295 293 289 289 288 287 286 286 285
317 318 319 319 318 316 317 317 317 315 314 313 313 311 310 309 308 307 307 306 306 305 305 303 302 301 300 301 301 300 300 300 298 293 292 291 289 288 287 285 285 285 285
317 317 317 318 317 316 316 316 316 315 314 312 312 311 310 308 308 307 307 306 305 306 305 305 303 302 301 301 301 300 299 299 299 295 291 290 288 288 287 285 285 285 285
316 316 316 317 317 315 315 315 315 315 314 312 311 311 310 308 308 307 306 305 304 304 306 306 305 303 302 301 301 300 299 297 296 294 290 289 288 287 287 286 285 285 285
315 315 315 315 317 316 314 314 314 314 313 312 310 310 310 309 307 307 306 305 304 303 304 305 305 304 303 302 301 299 298 296 294 291 289 289 288 287 287 286 286 285 285
311 313 314 314 315 316 314 313 313 313 313 311 310 309 308 308 307 307 306 305 304 304 303 304 304 304 303 302 301 300 299 296 292 290 289 288 288 288 287 287 286 285 285
309 310 311 312 313 314 313 312 312 312 311 310 309 308 307 307 307 307 307 304 304 304 304 304 303 303 302 300 299 299 298 297 297 295 290 289 289 288 287 286 286 286 285
307 308 308 310 311 312 312 311 311 311 309 308 307 307 307 306 306 306 305 304 304 303 304 304 303 301 300 299 298 297 297 295 294 294 293 290 289 288 287 287 286 285 284
304 305 306 307 308 308 309 309 309 308 307 306 306 305 305 305 306 305 304 302 301 300 302 303 301 300 299 298 297 296 295 293 292 292 291 289 288 287 286 286 285 284 284
303 304 305 305 305 305 306 307 306 306 305 304 304 304 304 303 304 304 303 299 299 298 297 298 299 298 297 297 297 295 292 291 291 290 289 287 287 286 286 286 286 285 285
304 304 304 304 303 303 303 304 305 303 303 302 302 301 301 302 301 301 299 298 297 296 296 295 296 297 296 296 295 294 292 291 290 288 287 287 286 285 286 285 286 286 286
303 303 303 303 302 301 301 301 301 301 298 297 296 297 297 298 300 299 298 300 298 297 295 297 297 295 295 293 293 292 292 290 288 287 286 285 285 285 285 285 285 285 284
302 302 302 301 300 300 299 297 296 296 295 294 294 294 293 295 296 296 297 297 297 295 295 295 295 293 292 291 291 290 290 288 286 285 284 284 285 285 285 284 283 283 283
299 298 298 297 297 297 296 295 295 294 294 293 293 293 292 292 293 293 294 294 294 294 293 292 291 290 289 289 288 288 288 287 286 285 284 285 285 284 284 283 283 283 282
295 294 295 295 294 293 293 293 293 294 294 293 293 292 292 292 292 292 292 291 291 292 290 289 289 288 287 287 287 286 286 286 285 285 285 284 284 284 283 283 282 282 282
293 293 293 292 292 292 292 292 293 293 293 293 293 292 292 292 291 291 291 291 292 291 289 289 288 287 287 287 285 284 285 284 284 285 285 285 284 283 282 282 282 282 281
293 292 292 292 291 291 291 292 291 292 293 292 292 291 291 291 291 290 291 291 290 289 290 289 288 288 287 286 285 285 284 284 284 285 285 284 283 282 281 281 281 281 281
292 292 291 291 291 291 291 291 291 291 291 291 291 291 291 291 290 289 289 289 289 290 289 288 288 287 286 285 284 284 283 284 284 285 284 284 283 282 280 280 280 280 279
291 291 291 291 291 291 291 291 291 291 291 290 290 290 290 290 289 289 289 289 289 289 288 288 287 286 285 284 283 283 283 284 284 284 284 283 282 281 280 280 279 278 277
291 291 291 291 291 290 290 290 290 290 290 290 290 290 289 289 289 289 289 289 289 289 288 288 287 285 284 283 283 282 283 283 283 283 283 282 281 280 280 279 279 278 279
291 290 291 291 290 290 290 290 290 290 289 290 290 289 289 289 289 289 289 288 289 288 286 286 284 284 284 284 285 284 283 283 283 282 282 282 280 279 279 279 280 279 279
291 290 290 291 290 290 290 290 290 289 289 289 289 289 289 289 288 288 288 288 288 287 287 286 285 285 285 284 283 283 283 282 282 282 282 281 279 279 279 279 279 278 278
290 290 290 290 290 290 290 290 289 289 289 288 288 289 289 288 288 288 288 287 287 287 287 287 286 285 285 285 284 284 284 283 283 283 282 281 280 280 280 279 278 277 277
290 290 290 290 290 290 290 290 289 289 289 288 288 288 288 288 288 288 287 287 287 286 286 287 286 286 285 284 284 284 284 284 284 284 283 283 281 280 280 278 278 277 276
290 290 290 290 290 290 290 290 289 289 289 288 288 288 288 287 287 287 287 287 286 286 286 286 286 285 285 285 285 285 284 284 284 284 283 282 281 280 279 277 276 275 274
290 290 290 290 290 290 290 289 289 289 289 288 288 288 288 287 287 287 286 286 285 285 285 286 286 286 285 285 285 285 284 284 283 283 282 281 280 279 278 277 276 275 275
Wind_Speed
36 37 39 40 39 38 38 35 35 35 37 41 44 43 44 44 44 45 40 41 41 38 36 34 32 29 27 25 22 22 20 17 10 6 11 8 10 11 9 10 11 11 12
33 35 36 36 37 36 37 36 34 35 36 40 44 44 43 42 44 43 43 41 42 40 39 36 34 31 29 27 25 24 22 20 15 16 15 13 12 14 13 12 12 12 12
32 32 31 34 35 36 35 35 36 35 36 38 43 44 43 41 41 42 41 40 42 44 42 40 37 34 33 30 28 26 23 22 20 17 13 17 17 18 17 15 12 11 11
31 32 31 34 36 36 34 35 35 36 35 39 42 41 40 38 40 41 40 35 36 37 42 40 37 37 36 34 31 29 26 24 21 21 18 22 18 20 19 18 15 11 11
26 30 29 30 34 33 32 32 34 35 36 38 36 37 41 40 40 40 38 38 35 34 37 38 38 35 34 34 35 32 31 28 25 25 18 18 20 23 22 18 16 13 10
24 29 31 33 33 31 31 32 33 34 35 36 37 39 39 39 40 44 42 39 39 38 36 36 35 33 32 33 34 33 34 33 29 23 20 21 25 25 21 24 20 12 5
27 28 29 30 32 32 30 31 32 33 33 36 37 37 39 39 42 44 46 39 38 40 38 38 36 33 33 33 32 30 29 25 30 36 32 29 31 30 28 25 21 16 7
28 29 29 30 31 33 29 29 29 31 33 35 35 36 36 38 41 45 46 38 39 40 41 39 38 37 36 36 35 31 28 28 28 30 30 31 26 27 26 24 21 16 12
27 28 32 32 31 32 31 28 27 29 28 32 35 36 36 35 41 44 47 35 34 35 39 36 38 38 38 37 36 34 29 28 23 23 22 24 24 25 23 24 22 22 6
27 32 33 32 32 31 31 29 27 28 27 28 31 34 36 35 39 45 47 36 36 34 29 34 37 38 38 38 39 40 34 32 29 25 26 24 25 23 21 19 22 24 8
32 32 30 30 33 33 32 32 32 27 29 30 32 32 33 37 37 43 44 37 37 36 37 34 33 35 37 40 40 41 41 38 33 34 32 29 26 24 22 20 19 19 15
27 27 28 29 31 30 31 30 31 30 27 24 25 26 30 33 37 44 48 45 42 42 40 39 39 37 39 41 39 38 38 39 38 36 34 31 29 26 22 19 18 16 16
24 26 26 27 28 28 29 27 25 27 22 20 22 20 21 30 35 41 46 42 41 37 37 38 40 39 39 37 37 38 39 41 39 33 31 33 31 25 21 19 18 16 14
23 23 24 25 24 25 26 28 23 23 21 20 20 19 22 25 29 34 36 36 37 35 33 35 37 38 36 32 32 36 39 40 39 32 31 32 27 24 23 21 19 16 14
19 20 20 21 23 22 22 24 23 24 28 26 25 27 28 27 33 37 38 37 36 36 34 35 34 32 30 32 31 32 35 37 36 36 34 32 28 25 23 22 18 16 11
17 18 18 19 19 20 19 15 19 23 24 24 25 27 26 25 32 36 36 37 37 39 36 32 30 30 30 30 29 29 32 34 34 36 36 34 31 28 26 23 19 18 15
19 18 18 18 19 19 18 18 13 16 21 22 23 26 28 31 37 37 38 38 40 39 26 30 30 31 30 30 30 31 32 34 36 37 36 35 32 26 25 23 21 18 17
21 22 21 20 20 20 20 19 18 19 17 20 23 26 27 32 38 38 38 36 34 27 27 30 30 31 30 31 30 29 29 34 35 36 34 34 31 30 24 21 21 18 16
19 20 20 20 20 20 20 20 19 18 17 17 20 23 26 33 36 37 40 33 33 27 28 29 30 31 29 30 30 31 34 36 35 36 34 33 31 31 27 24 20 18 16
19 20 21 20 20 20 20 20 19 17 17 18 20 21 28 31 30 33 33 26 28 27 27 28 29 30 31 30 31 32 32 35 35 34 33 34 30 29 28 27 24 23 22
17 20 21 20 20 20 20 20 20 20 18 19 19 23 29 27 25 26 27 22 23 22 23 24 26 31 34 36 37 38 37 37 37 35 34 34 32 29 28 26 23 23 21
18 18 19 19 20 20 20 19 21 22 22 21 20 26 31 25 23 23 22 20 22 23 25 29 30 32 34 37 38 38 38 38 38 39 37 34 31 29 29 28 26 25 22
19 18 18 16 18 19 20 21 20 21 21 21 25 27 30 25 24 25 25 25 27 29 30 30 32 32 34 36 38 41 43 44 44 43 40 37 34 34 31 29 27 25 21
19 19 18 17 17 18 20 19 19 22 23 25 24 25 27 27 26 26 26 26 28 30 32 33 32 34 36 37 37 39 40 40 40 40 38 36 36 34 31 29 27 23 18
19 18 18 18 18 18 17 18 20 20 21 22 25 27 27 27 25 27 28 30 32 32 32 32 32 34 34 35 37 38 39 39 36 36 35 33 34 34 31 26 23 23 21
18 18 17 17 18 18 19 19 19 21 22 22 22 23 25 27 28 28 30 31 31 31 31 32 33 33 32 33 35 36 38 37 35 32 33 34 32 32 30 27 23 22 21
Wind_Direction
201 202 205 207 211 214 215 215 210 212 204 204 206 205 206 206 209 211 212 216 214 213 213 212 213 213 212 212 211 211 209 200 136 139 164 176 162 146 134 120 110 102 98
200 202 205 207 209 213 214 215 213 209 207 207 206 206 204 203 204 206 207 211 210 210 211 210 213 210 213 210 206 208 204 200 165 150 159 169 166 149 140 133 111 110 102
202 202 204 206 207 215 215 213 211 209 207 205 204 204 203 202 200 205 208 210 212 210 211 211 210 209 211 209 207 205 201 198 191 173 151 173 159 158 145 137 118 119 114
208 202 203 206 210 214 213 213 210 208 205 205 205 203 204 201 202 205 203 207 209 209 211 212 212 210 210 209 205 202 194 188 187 175 165 167 161 159 158 151 135 122 127
212 209 208 210 211 213 214 212 210 207 207 206 202 202 205 205 202 201 201 202 207 208 213 211 213 212 213 212 204 199 192 183 175 167 162 171 168 163 169 166 154 136 125
220 216 216 213 209 209 209 207 205 206 205 202 200 201 200 204 204 206 203 198 203 205 204 210 212 214 211 212 211 207 201 187 175 178 181 173 173 177 173 165 161 159 154
225 224 217 214 210 210 209 204 205 204 201 200 200 199 202 207 208 211 209 196 195 202 207 208 206 206 206 202 206 209 204 204 209 193 185 181 175 179 169 170 174 175 162
224 223 222 213 213 213 209 207 206 204 199 196 197 198 202 207 210 206 202 198 198 202 205 206 203 199 197 195 193 195 195 201 204 200 194 185 180 171 175 169 166 164 159
221 221 222 216 212 214 210 209 204 199 195 193 196 197 202 207 212 205 198 193 193 196 199 200 203 197 193 193 188 186 184 197 193 193 187 180 177 172 176 166 167 166 160
218 221 222 217 213 208 207 204 200 198 196 194 195 201 205 206 211 204 193 186 183 190 192 194 200 198 193 194 191 185 175 183 176 171 171 170 173 175 178 184 181 178 143
225 224 221 217 214 214 207 204 199 192 195 197 200 200 203 210 206 203 187 189 182 180 185 189 198 204 200 195 198 188 183 178 173 171 172 169 175 179 179 185 192 202 199
223 220 218 214 212 208 205 200 198 194 188 186 184 190 201 203 207 197 194 201 197 186 184 190 199 203 200 195 195 187 184 175 173 173 173 174 178 179 183 189 195 201 208
212 212 209 207 205 204 197 188 182 184 181 177 177 178 178 191 190 190 197 200 195 188 189 195 194 192 194 189 193 186 183 177 173 172 173 180 184 177 181 187 190 195 200
194 194 193 189 189 194 193 188 179 180 180 179 179 177 173 176 177 180 184 192 189 190 187 184 179 174 176 177 175 182 185 182 179 177 178 182 177 182 188 191 188 191 198
176 174 175 175 173 174 182 182 183 189 186 183 188 183 175 179 185 180 176 175 175 179 168 158 156 161 161 165 169 177 182 184 182 185 183 179 182 187 194 193 195 191 196
164 169 169 165 165 167 167 167 190 196 193 192 197 191 189 186 179 178 175 175 179 175 158 162 165 169 170 171 171 173 182 185 187 187 186 187 186 191 194 195 199 201 207
169 170 168 165 167 167 167 167 160 179 193 196 196 192 187 182 176 174 177 179 175 162 165 169 171 176 177 177 178 181 184 187 191 190 191 193 192 191 194 194 197 200 206
175 173 172 173 173 171 172 171 166 168 171 170 188 186 185 180 175 171 166 158 163 173 172 174 175 177 179 177 178 180 179 184 188 190 194 197 197 197 189 192 200 203 210
177 176 174 173 173 172 168 166 164 165 165 156 156 170 181 175 171 169 168 171 176 180 179 178 179 180 181 179 178 181 182 183 186 189 192 194 196 200 203 202 200 203 208
184 178 171 168 165 165 165 163 158 160 159 158 160 161 163 164 169 172 178 179 183 186 184 183 182 180 178 178 177 177 178 183 188 189 192 198 200 202 206 206 210 210 215
178 174 172 166 168 169 167 168 163 160 163 162 162 164 170 175 178 181 185 190 189 186 180 177 173 180 184 187 195 193 192 191 194 193 194 199 204 203 210 215 214 215 223
174 172 173 174 169 168 170 172 169 166 165 161 159 167 173 174 178 184 192 191 189 188 192 192 191 194 195 194 191 190 191 193 194 197 198 201 203 207 212 214 214 215 219
173 172 174 176 178 171 169 170 171 166 166 168 167 172 176 180 183 186 188 190 195 199 203 206 205 201 206 207 208 208 203 202 204 204 202 205 209 213 212 213 214 215 220
174 174 176 174 173 175 175 172 179 174 174 171 175 179 181 183 187 191 192 193 195 201 206 211 213 214 214 211 212 213 214 212 211 211 213 212 211 211 212 216 218 221 219
176 176 176 176 177 175 175 177 173 177 179 181 181 181 184 185 191 192 197 198 200 202 208 217 218 219 220 218 216 215 216 217 216 216 214 214 214 212 213 212 212 217 222
178 180 178 176 176 178 178 177 181 181 183 188 191 188 189 188 193 189 193 197 197 201 209 217 220 220 220 221 222 220 218 217 214 216 212 210 210 211 215 218 219 220 225